Location: Byszew
(52.1813°N, 19.2693°E)
Time: 11:41:34
(UTC+00:00)

SPROUT - Pass Details

Date: 06 July 2022
Orbit: 588 x 598 km, 97.9° (Epoch: 18 August)

Event Time Altitude Azimuth Distance (km) Brightness Sun altitude
Exits shadow 22:02:56 - 112° (ESE) 2,135 ? -14.6°
Reaches altitude 10° 22:03:37 10° 106° (ESE) 1,920 ? -14.6°
Maximum altitude 22:06:38 20° 59° (ENE) 1,394 ? -14.7°
Drops below altitude 10° 22:09:41 10° 13° (NNE) 1,934 ? -14.7°
Sets 22:12:18 0° 356° (N) 2,843 ? -14.8°
